{"data":{"norad_id":66528,"intl_designator":"2025-265N","name":"STARLINK-35928","alt_names":[],"object_type":"PAYLOAD","status":"ACTIVE","operator":null,"country":"US","launch_date":"2025-11-19","launch_site_code":"AFETR","launch_vehicle":null,"mission":null,"orbit_class":"UNKNOWN","rcs_meters":null,"size_class":null,"mass_kg":null,"dimensions":null,"purposes":["comms"],"wikipedia_slug":null,"has_3d_model":false,"image_url":null,"decayed_at":null,"tle_current":{"epoch":"2026-09-20T08:01:14.044512Z","epoch_age_seconds":103532,"freshness":"FRESH","line1":"1 66528U 25265N   26263.33419033  .00008911  00000+0  33292-3 0  9992","line2":"2 66528  43.0002 258.5240 0001425 272.6192  87.4497 15.27583904 46884","mean_motion":15.27583904,"eccentricity":0.0001425,"inclination_deg":43.0002,"raan_deg":258.524,"arg_perigee_deg":272.6192,"mean_anomaly_deg":87.4497,"bstar":0.00033292,"rev_number":4688,"period_min":94.266507798972,"perigee_km":482.05968873122,"apogee_km":484.01512343696,"semimajor_km":6861.1744060841,"source":"CELESTRAK","updated_at":"2026-09-21T09:00:35.965740Z"}}}